Change the Weather History Date:

Thursday, January 3, 2013

  Actual Average Record
Temperature  
Mean Temperature 34 °F -  
Max Temperature 43 °F 43 °F 53 °F (2003)
Min Temperature 26 °F 35 °F 17 °F (2004)
Degree Days  
Heating Degree Days 30    
Moisture  
Dew Point 30 °F    
Average Humidity 78    
Maximum Humidity 100    
Minimum Humidity 51    
Precipitation  
Precipitation 0.00 in - - ()
Sea Level Pressure  
Sea Level Pressure 30.14 in    
Wind  
Wind Speed 3 mph (East)    
Max Wind Speed 16 mph    
Max Gust Speed 22 mph    
Visibility 10 miles    
Events      
Averages and records for this station are not official NWS values.
T = Trace of Precipitation, MM = Missing Value Source: NWS Daily Summary

Daily Weather History Graph

Daily Weather History Graph

Search for Another Location

Airport or City:

Trip Planner

Search our weather history database for the weather conditions in past years. The results will help you decide how hot, cold, wet, or windy it might be!

Date:

Astronomy

Jan. 03, 2013 Rise Set
Actual Time 8:03 AM PST 4:29 PM PST
Civil Twilight 7:27 AM PST 5:06 PM PST
Nautical Twilight 6:47 AM PST 5:46 PM PST
Astronomical Twilight 6:09 AM PST 6:24 PM PST
Moon 11:47 PM PST (1/3) 10:45 AM PST (1/3)
Length of Visible Light 9h 39m
Length of Day
8h 26m
Waning Gibbous, 64% of the Moon is Illuminated
Jan 3
Waning Gibbous
Jan 4
Last Quarter
Jan 11
New
Jan 18
First Quarter
Jan 26
Full

Hourly Weather History & Observations

Time (PST) Temp. Windchill Dew Point Humidity Pressure Visibility Wind Dir Wind Speed Gust Speed Precip Events Conditions
12:53 AM 32.0 °F - 30.0 °F 92% 30.21 in 10.0 mi Calm Calm - N/A   Clear
1:53 AM 34.0 °F - 32.0 °F 92% 30.21 in 10.0 mi Calm Calm - N/A   Clear
2:53 AM 30.0 °F - 28.0 °F 92% 30.22 in 10.0 mi Calm Calm - N/A   Clear
3:53 AM 30.0 °F - 28.9 °F 96% 30.19 in 10.0 mi Calm Calm - N/A   Clear
4:53 AM 27.0 °F - 26.1 °F 96% 30.17 in 10.0 mi Calm Calm - N/A   Clear
5:53 AM 26.1 °F - 26.1 °F 100% 30.16 in 10.0 mi Calm Calm - N/A   Clear
6:53 AM 27.0 °F - 25.0 °F 92% 30.15 in 10.0 mi Calm Calm - N/A   Clear
7:19 AM 28.4 °F - 26.6 °F 93% 30.14 in 10.0 mi Calm Calm - N/A   Partly Cloudy
7:53 AM 28.0 °F - 26.1 °F 92% 30.14 in 10.0 mi Calm Calm - N/A   Clear
8:53 AM 30.0 °F - 28.9 °F 96% 30.14 in 10.0 mi Calm Calm - N/A   Clear
9:53 AM 36.0 °F 33.3 °F 33.1 °F 89% 30.15 in 10.0 mi NNE 3.5 mph - N/A   Clear
10:53 AM 39.9 °F 37.8 °F 28.9 °F 65% 30.15 in 10.0 mi ENE 3.5 mph - N/A   Clear
11:53 AM 41.0 °F 38.0 °F 27.0 °F 57% 30.14 in 10.0 mi ESE 4.6 mph - N/A   Clear
12:53 PM 42.1 °F 39.2 °F 25.0 °F 51% 30.12 in 10.0 mi ENE 4.6 mph - N/A   Clear
1:53 PM 43.0 °F 40.3 °F 26.1 °F 51% 30.11 in 10.0 mi ENE 4.6 mph - N/A   Clear
2:53 PM 41.0 °F 38.0 °F 27.0 °F 57% 30.11 in 10.0 mi East 4.6 mph - N/A   Clear
3:53 PM 39.9 °F 37.8 °F 27.0 °F 60% 30.12 in 10.0 mi ENE 3.5 mph - N/A   Clear
4:53 PM 39.9 °F 35.8 °F 30.0 °F 68% 30.12 in 10.0 mi NNE 5.8 mph - N/A   Overcast
5:53 PM 41.0 °F 35.2 °F 28.9 °F 62% 30.10 in 10.0 mi ENE 9.2 mph - N/A   Overcast
6:53 PM 41.0 °F 39.0 °F 28.9 °F 62% 30.12 in 10.0 mi East 3.5 mph - N/A   Overcast
7:53 PM 42.1 °F 39.2 °F 28.9 °F 60% 30.11 in 10.0 mi Variable 4.6 mph - N/A   Overcast
8:53 PM 42.1 °F 37.1 °F 32.0 °F 67% 30.11 in 10.0 mi East 8.1 mph - N/A   Overcast
9:21 PM 42.8 °F 37.5 °F 33.8 °F 70% 30.10 in 10.0 mi ESE 9.2 mph 19.6 mph N/A   Overcast
9:53 PM 41.0 °F 32.8 °F 35.1 °F 79% 30.12 in 10.0 mi SE 16.1 mph 21.9 mph N/A   Overcast
10:20 PM 39.2 °F 30.8 °F 33.8 °F 81% 30.12 in 10.0 mi ESE 15.0 mph - N/A   Overcast
10:53 PM 39.0 °F 33.4 °F 35.1 °F 86% 30.13 in 10.0 mi ESE 8.1 mph - N/A   Overcast
11:30 PM 39.2 °F 33.0 °F 35.6 °F 87% 30.12 in 10.0 mi East 9.2 mph - N/A   Overcast
11:45 PM 39.2 °F 33.6 °F 35.6 °F 87% 30.13 in 10.0 mi ESE 8.1 mph - N/A   Overcast
11:53 PM 41.0 °F 36.4 °F 36.0 °F 82% 30.14 in 10.0 mi ESE 6.9 mph 16.1 mph N/A   Overcast